Stations météo

réclame
Mon MeteoGroup
Cluanie Inn No 3, Grande-Bretagne (99117): Température de l'air & dewpoint: 18.06.2018 00:00:00 - 24.06.2018 00:00:00 (BST)Cluanie Inn No 3, Grande-Bretagne (99117): Quantités de précipitations: 18.06.2018 00:00:00 - 24.06.2018 00:00:00 (BST)
Date & Time tt [°C] td [°C] rr [mm]
24.06.2018 00:00:00 10,8 8,5 -
23.06.2018 23:00:00 11,1 8,4 0,0
23.06.2018 22:00:00 11,3 9,0 0,0
23.06.2018 21:00:00 11,5 9,0 0,0
23.06.2018 20:00:00 11,7 9,0 0,0
23.06.2018 19:00:00 11,9 9,2 0,0
23.06.2018 18:00:00 12,5 9,2 0,0
23.06.2018 17:00:00 11,9 9,3 0,0
23.06.2018 16:00:00 11,6 9,0 0,0
23.06.2018 15:00:00 11,6 8,4 0,0
23.06.2018 14:00:00 11,6 7,7 0,0
23.06.2018 13:00:00 11,8 7,4 0,0
23.06.2018 12:00:00 12,0 6,5 0,0
23.06.2018 11:00:00 12,4 6,2 0,0
23.06.2018 10:00:00 11,5 5,9 0,0
23.06.2018 09:00:00 10,9 6,5 0,0
23.06.2018 08:00:00 10,5 5,8 0,0
23.06.2018 07:00:00 10,0 5,7 0,0
23.06.2018 06:00:00 10,0 5,4 0,0
23.06.2018 05:00:00 9,8 5,3 0,0
23.06.2018 04:00:00 9,7 5,7 0,0
23.06.2018 03:00:00 9,9 6,0 0,0
23.06.2018 02:00:00 9,8 6,1 0,0
23.06.2018 01:00:00 9,9 6,0 0,0
23.06.2018 00:00:00 9,8 5,9 0,0
22.06.2018 23:00:00 10,2 5,5 0,0
22.06.2018 22:00:00 10,5 5,5 0,0
22.06.2018 21:00:00 10,9 5,7 0,0
22.06.2018 20:00:00 11,7 6,4 0,0
22.06.2018 19:00:00 11,9 7,2 0,0
22.06.2018 18:00:00 11,3 6,7 0,0
22.06.2018 17:00:00 11,5 6,7 0,0
22.06.2018 16:00:00 12,1 7,2 0,0
22.06.2018 15:00:00 12,4 6,6 0,0
22.06.2018 14:00:00 12,2 7,5 0,0
22.06.2018 13:00:00 11,8 6,4 0,0
22.06.2018 12:00:00 12,3 6,3 0,0
22.06.2018 11:00:00 10,6 6,7 0,0
22.06.2018 10:00:00 9,1 6,7 0,0
22.06.2018 09:00:00 9,4 5,6 0,0
22.06.2018 08:00:00 9,3 5,0 0,0
22.06.2018 07:00:00 8,9 4,9 0,0
22.06.2018 06:00:00 8,4 5,4 0,0
22.06.2018 05:00:00 8,2 5,0 0,0
22.06.2018 04:00:00 8,0 5,4 0,0
22.06.2018 03:00:00 8,4 5,7 0,0
22.06.2018 02:00:00 8,6 5,7 0,0
22.06.2018 01:00:00 9,0 5,1 0,0
22.06.2018 00:00:00 8,6 4,4 0,0
21.06.2018 23:00:00 9,3 3,5 0,0
21.06.2018 22:00:00 9,7 3,4 0,0
21.06.2018 21:00:00 10,4 4,8 0,0
21.06.2018 20:00:00 10,7 5,0 0,0
21.06.2018 19:00:00 11,3 5,2 0,0
21.06.2018 18:00:00 11,5 5,4 0,0
21.06.2018 17:00:00 12,4 4,8 0,0
21.06.2018 16:00:00 12,5 4,9 0,0
21.06.2018 15:00:00 12,0 4,5 0,0
21.06.2018 14:00:00 11,9 4,9 0,0
21.06.2018 13:00:00 11,0 4,4 0,0
21.06.2018 12:00:00 10,5 5,6 0,4
21.06.2018 11:00:00 8,9 6,5 0,8
21.06.2018 10:00:00 9,0 4,8 0,0
21.06.2018 09:00:00 9,9 4,0 0,0
21.06.2018 08:00:00 8,9 3,2 0,0
21.06.2018 07:00:00 8,1 3,8 0,2
21.06.2018 06:00:00 7,5 4,1 1,4
21.06.2018 05:00:00 7,5 4,4 0,2
21.06.2018 04:00:00 7,0 4,6 1,0
21.06.2018 03:00:00 7,1 4,7 0,6
21.06.2018 02:00:00 7,4 4,4 0,8
21.06.2018 01:00:00 7,0 4,3 0,2
21.06.2018 00:00:00 6,8 4,1 0,4
20.06.2018 23:00:00 6,4 3,8 1,8
20.06.2018 22:00:00 7,0 4,6 0,4
20.06.2018 21:00:00 7,2 4,8 1,8
20.06.2018 20:00:00 7,8 5,3 0,8
20.06.2018 19:00:00 8,9 4,8 0,2
20.06.2018 18:00:00 8,1 4,4 1,0
20.06.2018 17:00:00 10,1 4,8 0,0
20.06.2018 16:00:00 10,3 4,7 0,0
20.06.2018 15:00:00 13,4 5,5 0,2
20.06.2018 14:00:00 11,2 5,4 0,2
20.06.2018 13:00:00 12,9 7,0 0,0
20.06.2018 12:00:00 10,3 5,9 0,0
20.06.2018 11:00:00 11,9 6,4 0,0
20.06.2018 10:00:00 10,6 5,9 0,0
20.06.2018 09:00:00 8,9 6,0 0,0
20.06.2018 08:00:00 8,9 6,5 0,0
20.06.2018 07:00:00 7,9 6,9 0,2
20.06.2018 06:00:00 7,4 6,9 1,6
20.06.2018 05:00:00 7,3 6,8 1,8
20.06.2018 04:00:00 7,4 6,9 0,4
20.06.2018 03:00:00 7,9 6,1 0,0
20.06.2018 02:00:00 8,3 6,0 0,0
20.06.2018 01:00:00 8,3 6,5 0,0
20.06.2018 00:00:00 8,2 7,3 0,4
19.06.2018 23:00:00 8,5 6,7 0,2
19.06.2018 22:00:00 8,7 7,3 0,8
19.06.2018 21:00:00 8,9 7,2 0,6
19.06.2018 20:00:00 9,7 6,0 0,6
19.06.2018 19:00:00 11,1 5,8 0,0
19.06.2018 18:00:00 11,9 2,7 0,0
19.06.2018 17:00:00 12,2 3,3 0,0
19.06.2018 16:00:00 12,5 4,3 0,0
19.06.2018 15:00:00 12,1 4,2 0,0
19.06.2018 14:00:00 12,9 5,9 0,0
19.06.2018 13:00:00 12,2 6,1 0,0
19.06.2018 12:00:00 12,5 6,5 0,0
19.06.2018 11:00:00 9,7 5,5 0,0
19.06.2018 10:00:00 10,9 5,5 0,0
19.06.2018 09:00:00 10,7 4,1 0,0
19.06.2018 08:00:00 9,5 4,0 0,0
19.06.2018 07:00:00 8,9 3,1 0,0
19.06.2018 06:00:00 8,8 4,2 0,0
19.06.2018 05:00:00 8,6 3,7 0,2
19.06.2018 04:00:00 8,9 2,9 0,4
19.06.2018 03:00:00 8,5 4,6 0,8
19.06.2018 02:00:00 8,2 5,2 1,4
19.06.2018 01:00:00 8,9 4,6 0,0
19.06.2018 00:00:00 8,7 5,1 2,2
18.06.2018 23:00:00 8,1 5,2 0,8
18.06.2018 22:00:00 8,7 4,8 0,8
18.06.2018 21:00:00 9,5 4,4 0,2
18.06.2018 20:00:00 9,2 5,3 0,2
18.06.2018 19:00:00 10,3 4,8 0,0
18.06.2018 18:00:00 10,6 6,0 0,0
18.06.2018 17:00:00 10,3 6,7 1,0
18.06.2018 16:00:00 10,7 7,1 0,0
18.06.2018 15:00:00 11,3 5,4 0,0
18.06.2018 14:00:00 11,5 5,5 0,0
18.06.2018 13:00:00 10,8 7,1 0,2
18.06.2018 12:00:00 10,7 5,6 0,0
18.06.2018 11:00:00 10,8 6,3 0,0
18.06.2018 10:00:00 10,8 6,1 0,0
18.06.2018 09:00:00 10,7 5,0 0,0
18.06.2018 08:00:00 10,0 5,6 0,0
18.06.2018 07:00:00 10,1 6,0 0,0
18.06.2018 06:00:00 10,1 4,1 0,0
18.06.2018 05:00:00 10,1 5,2 0,0
18.06.2018 04:00:00 9,9 6,8 0,0
18.06.2018 03:00:00 10,2 6,5 0,0
18.06.2018 02:00:00 10,4 7,7 0,4
18.06.2018 01:00:00 10,7 8,5 0,2
18.06.2018 00:00:00 11,1 9,0 0,2

tt = Température de l'air
td = dewpoint
rr = Quantités de précipitations

stations d'obs. à proximité